Previsão horária em Centralnoe

Hoje, 27 Julho, Terça-feira

Tempo Temperatura Precipitação Vento Pressão Humidade
00:00 +17°C° 0 mm 4 m/s 716 mmHg 48%
01:00 +15°C° 0 mm 4 m/s 716 mmHg 48%
02:00 +14°C° 0 mm 4 m/s 716 mmHg 48%
03:00 +13°C° 0 mm 3 m/s 717 mmHg 50%
04:00 +13°C° 0 mm 3 m/s 717 mmHg 52%
05:00 +12°C° 0 mm 3 m/s 717 mmHg 54%
06:00 +14°C° 0 mm 3 m/s 717 mmHg 50%
07:00 +16°C° 0 mm 3 m/s 718 mmHg 47%
08:00 +18°C° 0 mm 3 m/s 718 mmHg 44%
09:00 +19°C° 0 mm 3 m/s 718 mmHg 41%
10:00 +20°C° 0 mm 3 m/s 718 mmHg 38%
11:00 +21°C° 0 mm 3 m/s 717 mmHg 36%
12:00 +22°C° 0 mm 3 m/s 717 mmHg 34%
13:00 +22°C° 0 mm 4 m/s 717 mmHg 33%
14:00 +23°C° 0 mm 4 m/s 717 mmHg 31%
15:00 +22°C° 0 mm 5 m/s 717 mmHg 32%
16:00 +22°C° 0 mm 5 m/s 716 mmHg 33%
17:00 +21°C° 0 mm 6 m/s 716 mmHg 34%
18:00 +20°C° 0 mm 6 m/s 716 mmHg 38%
19:00 +17°C° 0 mm 5 m/s 716 mmHg 42%
20:00 +15°C° 0 mm 5 m/s 716 mmHg 46%
21:00 +15°C° 0 mm 5 m/s 716 mmHg 48%
22:00 +14°C° 0 mm 4 m/s 716 mmHg 51%
23:00 +13°C° 0 mm 3 m/s 716 mmHg 53%

Amanhã, 28 Julho, Quarta-feira

Tempo Temperatura Precipitação Vento Pressão Humidade
00:00 +12°C° 0 mm 3 m/s 716 mmHg 54%
01:00 +13°C° 0 mm 2 m/s 716 mmHg 56%
02:00 +12°C° 0 mm 2 m/s 716 mmHg 58%
03:00 +12°C° 0 mm 2 m/s 716 mmHg 59%
04:00 +12°C° 0 mm 1 m/s 716 mmHg 60%
05:00 +12°C° 0 mm 1 m/s 716 mmHg 61%
06:00 +14°C° 0 mm 1 m/s 716 mmHg 55%
07:00 +16°C° 0 mm 1 m/s 716 mmHg 48%
08:00 +19°C° 0 mm 1 m/s 717 mmHg 41%
09:00 +20°C° 0 mm 1 m/s 717 mmHg 38%
10:00 +21°C° 0 mm 1 m/s 717 mmHg 35%
11:00 +22°C° 0 mm 1 m/s 716 mmHg 31%
12:00 +22°C° 0 mm 1 m/s 716 mmHg 30%
13:00 +23°C° 0 mm 1 m/s 716 mmHg 29%
14:00 +24°C° 0 mm 1 m/s 716 mmHg 28%
15:00 +24°C° 0 mm 1 m/s 715 mmHg 27%
16:00 +24°C° 0 mm 2 m/s 715 mmHg 27%
17:00 +24°C° 0 mm 2 m/s 715 mmHg 27%
18:00 +23°C° 0 mm 2 m/s 715 mmHg 31%
19:00 +20°C° 0 mm 2 m/s 715 mmHg 35%
20:00 +19°C° 0 mm 3 m/s 715 mmHg 39%
21:00 +18°C° 0 mm 2 m/s 715 mmHg 40%
22:00 +17°C° 0 mm 2 m/s 714 mmHg 41%
23:00 +17°C° 0 mm 2 m/s 714 mmHg 43%

Depois de amanhã, 29 Julho, Quinta-feira

Tempo Temperatura Precipitação Vento Pressão Humidade
00:00 +16°C° 0 mm 2 m/s 714 mmHg 44%
01:00 +16°C° 0 mm 2 m/s 714 mmHg 45%
02:00 +15°C° 0 mm 1 m/s 714 mmHg 46%
03:00 +15°C° 0 mm 1 m/s 714 mmHg 46%
04:00 +15°C° 0 mm 1 m/s 714 mmHg 47%
05:00 +15°C° 0 mm 1 m/s 714 mmHg 48%
06:00 +18°C° 0 mm 1 m/s 714 mmHg 44%
07:00 +20°C° 0 mm 1 m/s 714 mmHg 40%
08:00 +21°C° 0 mm 1 m/s 714 mmHg 36%
09:00 +23°C° 0 mm 1 m/s 714 mmHg 34%
10:00 +24°C° 0 mm 1 m/s 714 mmHg 31%
11:00 +25°C° 0 mm 1 m/s 714 mmHg 29%
12:00 +25°C° 0 mm 2 m/s 714 mmHg 28%
13:00 +26°C° 0 mm 2 m/s 714 mmHg 28%
14:00 +27°C° 0 mm 2 m/s 714 mmHg 27%
15:00 +26°C° 0 mm 3 m/s 714 mmHg 30%
16:00 +26°C° 0 mm 4 m/s 714 mmHg 32%
17:00 +25°C° 0 mm 5 m/s 714 mmHg 34%
18:00 +23°C° 0 mm 5 m/s 715 mmHg 41%
19:00 +21°C° 0 mm 5 m/s 715 mmHg 49%
20:00 +19°C° 0 mm 5 m/s 716 mmHg 56%
21:00 +18°C° 0 mm 4 m/s 716 mmHg 61%
22:00 +17°C° 0 mm 3 m/s 716 mmHg 65%
23:00 +16°C° 0 mm 2 m/s 716 mmHg 69%

30 Julho, Sexta-feira

Tempo Temperatura Precipitação Vento Pressão Humidade
00:00 +16°C° 0 mm 2 m/s 716 mmHg 70%
01:00 +15°C° 0 mm 2 m/s 716 mmHg 72%
02:00 +15°C° 0 mm 2 m/s 717 mmHg 73%
03:00 +14°C° 0 mm 2 m/s 717 mmHg 73%
04:00 +14°C° 0 mm 2 m/s 717 mmHg 74%
05:00 +14°C° 0 mm 2 m/s 717 mmHg 74%
06:00 +16°C° 0 mm 2 m/s 717 mmHg 66%
07:00 +18°C° 0 mm 2 m/s 718 mmHg 58%
08:00 +20°C° 0 mm 2 m/s 718 mmHg 49%
09:00 +21°C° 0 mm 2 m/s 718 mmHg 43%
10:00 +23°C° 0 mm 1 m/s 719 mmHg 37%
11:00 +25°C° 0 mm 1 m/s 719 mmHg 31%
12:00 +25°C° 0 mm 1 m/s 718 mmHg 29%
13:00 +26°C° 0 mm 2 m/s 718 mmHg 26%
14:00 +27°C° 0 mm 2 m/s 718 mmHg 24%
15:00 +27°C° 0 mm 2 m/s 718 mmHg 25%
16:00 +27°C° 0 mm 2 m/s 718 mmHg 25%
17:00 +27°C° 0 mm 2 m/s 718 mmHg 25%
18:00 +25°C° 0 mm 3 m/s 718 mmHg 29%
19:00 +24°C° 0 mm 3 m/s 718 mmHg 33%
20:00 +21°C° 0 mm 3 m/s 718 mmHg 37%
21:00 +20°C° 0 mm 3 m/s 718 mmHg 37%
22:00 +20°C° 0 mm 2 m/s 718 mmHg 38%
23:00 +19°C° 0 mm 2 m/s 718 mmHg 39%

31 Julho, Sábado

Tempo Temperatura Precipitação Vento Pressão Humidade
00:00 +19°C° 0 mm 2 m/s 718 mmHg 39%
01:00 +18°C° 0 mm 2 m/s 717 mmHg 39%
02:00 +18°C° 0 mm 2 m/s 717 mmHg 39%
03:00 +18°C° 0 mm 2 m/s 717 mmHg 40%
04:00 +18°C° 0 mm 3 m/s 717 mmHg 42%
05:00 +17°C° 0 mm 3 m/s 717 mmHg 43%
06:00 +19°C° 0 mm 3 m/s 717 mmHg 41%
07:00 +20°C° 0 mm 3 m/s 718 mmHg 39%
08:00 +22°C° 0 mm 4 m/s 718 mmHg 37%
09:00 +22°C° 0 mm 4 m/s 718 mmHg 35%
10:00 +23°C° 0 mm 4 m/s 718 mmHg 33%
11:00 +25°C° 0 mm 4 m/s 718 mmHg 31%
12:00 +26°C° 0 mm 4 m/s 718 mmHg 30%
13:00 +27°C° 0 mm 4 m/s 717 mmHg 29%
14:00 +28°C° 0 mm 4 m/s 717 mmHg 28%
15:00 +28°C° 0 mm 4 m/s 717 mmHg 27%
16:00 +29°C° 0 mm 4 m/s 717 mmHg 27%
17:00 +29°C° 0 mm 5 m/s 717 mmHg 26%
18:00 +27°C° 0 mm 3 m/s 717 mmHg 30%
19:00 +25°C° 0 mm 2 m/s 716 mmHg 34%
20:00 +23°C° 0 mm 1 m/s 716 mmHg 38%
21:00 +23°C° 0 mm 1 m/s 716 mmHg 40%
22:00 +22°C° 0 mm 1 m/s 716 mmHg 41%
23:00 +22°C° 0 mm 1 m/s 716 mmHg 43%

1 Agosto, Domingo

Tempo Temperatura Precipitação Vento Pressão Humidade
00:00 +21°C° 0 mm 1 m/s 716 mmHg 44%
01:00 +21°C° 0 mm 1 m/s 716 mmHg 45%
02:00 +20°C° 0 mm 1 m/s 716 mmHg 46%
03:00 +20°C° 0 mm 1 m/s 716 mmHg 47%
04:00 +20°C° 0 mm 1 m/s 716 mmHg 48%
05:00 +20°C° 0 mm 1 m/s 716 mmHg 48%
06:00 +22°C° 0 mm 1 m/s 716 mmHg 45%
07:00 +24°C° 0 mm 1 m/s 717 mmHg 41%
08:00 +26°C° 0 mm 1 m/s 717 mmHg 38%
09:00 +28°C° 0 mm 1 m/s 717 mmHg 36%
10:00 +29°C° 0 mm 1 m/s 717 mmHg 34%
11:00 +30°C° 0 mm 1 m/s 717 mmHg 33%
12:00 +30°C° 0 mm 2 m/s 717 mmHg 32%
13:00 +31°C° 0 mm 3 m/s 717 mmHg 32%
14:00 +32°C° 0 mm 4 m/s 717 mmHg 31%
15:00 +31°C° 0 mm 3 m/s 717 mmHg 31%
16:00 +31°C° 0 mm 3 m/s 716 mmHg 31%
17:00 +31°C° 0 mm 3 m/s 716 mmHg 31%
18:00 +29°C° 0 mm 3 m/s 716 mmHg 36%
19:00 +28°C° 0 mm 3 m/s 716 mmHg 41%
20:00 +26°C° 0 mm 4 m/s 716 mmHg 46%
21:00 +26°C° 0 mm 3 m/s 716 mmHg 46%
22:00 +25°C° 0 mm 3 m/s 716 mmHg 47%
23:00 +25°C° 0 mm 3 m/s 716 mmHg 47%
Mostrar mais

Necessitamos do seu Consentimento

A Meteoprog e os seus Fornecedores de Serviços podem armazenar e aceder a dados pessoais como cookies, identificadores do dispositivo ou outras tecnologias semelhantes existentes no seu dispositivo e processar estes dados para personalizar conteúdos e anúncios, assim como funcionalidades nas redes sociais e análise de tráfego.

  • Armazenar e/ou aceder a informações no seu dispositivo

    Os cookies, identificadores do dispositivo ou outras informações podem ser armazenados ou acedidos no seu dispositivo, para os fins acima indicados.

  • Anúncios e conteúdos personalizados, medição de anúncios e conteúdos, dados sobre o público-alvo e desenvolvimento de produtos

    Os anúncios e os conteúdos podem ser personalizados com base num perfil. Podem ser adicionados dados adicionais para uma maior personalização dos anúncios e dos conteúdos. A eficácia dos anúncios e dos conteúdos pode ser medida. Podem ser obtidas informações sobre o público que visualizou os anúncios e os conteúdos. Estes dados podem ser usados para desenvolver ou melhorar sistemas, softwares ou a experiência do utilizador.

Ao clicar em "Eu concordo”, permitirá o uso de cookies, identificadores do dispositivo e web beacons mencionados ou outras tecnologias semelhantes. As configurações do navegador do seu dispositivo podem ser alteradas.

Para certos fins, podem ser invocados interesses legítimos ao invés de consentimento. Pode ler mais informação sobre este assunto na nossa Política de Privacidade e Cookies.